#datetime,building,power
2023-06-25T00:00:00,mfh,25.55
2023-06-25T00:01:00,mfh,26.16
2023-06-25T00:02:00,mfh,24.93
2023-06-25T00:03:00,mfh,25.03
2023-06-25T00:04:00,mfh,24.94
2023-06-25T00:05:00,mfh,25.51
2023-06-25T00:06:00,mfh,25.39
2023-06-25T00:07:00,mfh,25.52
2023-06-25T00:08:00,mfh,25.39
2023-06-25T00:09:00,mfh,25.39
2023-06-25T00:10:00,mfh,25.43
2023-06-25T00:11:00,mfh,25.09
2023-06-25T00:12:00,mfh,24.69
2023-06-25T00:13:00,mfh,24.66
2023-06-25T00:14:00,mfh,25.64
2023-06-25T00:15:00,mfh,25.31
2023-06-25T00:16:00,mfh,25.34
2023-06-25T00:17:00,mfh,25.31
2023-06-25T00:18:00,mfh,25.69
2023-06-25T00:19:00,mfh,24.97
2023-06-25T00:20:00,mfh,24.72
2023-06-25T00:21:00,mfh,24.80
2023-06-25T00:22:00,mfh,24.77
2023-06-25T00:23:00,mfh,25.28
2023-06-25T00:24:00,mfh,25.58
2023-06-25T00:25:00,mfh,25.06
2023-06-25T00:26:00,mfh,25.48
2023-06-25T00:27:00,mfh,25.27
2023-06-25T00:28:00,mfh,25.28
2023-06-25T00:29:00,mfh,24.57
2023-06-25T00:30:00,mfh,24.57
2023-06-25T00:31:00,mfh,24.87
2023-06-25T00:32:00,mfh,25.29
2023-06-25T00:33:00,mfh,25.32
2023-06-25T00:34:00,mfh,25.28
2023-06-25T00:35:00,mfh,25.25
2023-06-25T00:36:00,mfh,25.26
2023-06-25T00:37:00,mfh,24.62
2023-06-25T00:38:00,mfh,24.62
2023-06-25T00:39:00,mfh,24.70
2023-06-25T00:40:00,mfh,25.33
2023-06-25T00:41:00,mfh,25.14
2023-06-25T00:42:00,mfh,25.16
2023-06-25T00:43:00,mfh,25.08
2023-06-25T00:44:00,mfh,25.03
2023-06-25T00:45:00,mfh,25.05
2023-06-25T00:46:00,mfh,24.33
2023-06-25T00:47:00,mfh,24.31
2023-06-25T00:48:00,mfh,24.25
2023-06-25T00:49:00,mfh,24.22
2023-06-25T00:50:00,mfh,24.97
2023-06-25T00:51:00,mfh,24.94
2023-06-25T00:52:00,mfh,25.81
2023-06-25T00:53:00,mfh,25.87
2023-06-25T00:54:00,mfh,26.20
2023-06-25T00:55:00,mfh,25.39
2023-06-25T00:56:00,mfh,25.40
2023-06-25T00:57:00,mfh,24.65
2023-06-25T00:58:00,mfh,25.26
2023-06-25T00:59:00,mfh,25.35
2023-06-25T01:00:00,mfh,25.28
2023-06-25T01:01:00,mfh,25.27
2023-06-25T01:02:00,mfh,25.44
2023-06-25T01:03:00,mfh,25.45
2023-06-25T01:04:00,mfh,24.82
2023-06-25T01:05:00,mfh,24.55
2023-06-25T01:06:00,mfh,24.54
2023-06-25T01:07:00,mfh,24.53
2023-06-25T01:08:00,mfh,25.10
2023-06-25T01:09:00,mfh,25.05
2023-06-25T01:10:00,mfh,25.41
2023-06-25T01:11:00,mfh,25.24
2023-06-25T01:12:00,mfh,24.58
2023-06-25T01:13:00,mfh,24.53
2023-06-25T01:14:00,mfh,24.55
2023-06-25T01:15:00,mfh,24.60
2023-06-25T01:16:00,mfh,25.05
2023-06-25T01:17:00,mfh,25.00
2023-06-25T01:18:00,mfh,25.03
2023-06-25T01:19:00,mfh,25.01
2023-06-25T01:20:00,mfh,25.03
2023-06-25T01:21:00,mfh,24.54
2023-06-25T01:22:00,mfh,24.48
2023-06-25T01:23:00,mfh,24.79
2023-06-25T01:24:00,mfh,24.40
2023-06-25T01:25:00,mfh,25.11
2023-06-25T01:26:00,mfh,25.11
2023-06-25T01:27:00,mfh,25.16
2023-06-25T01:28:00,mfh,25.19
2023-06-25T01:29:00,mfh,25.29
2023-06-25T01:30:00,mfh,24.60
2023-06-25T01:31:00,mfh,24.84
2023-06-25T01:32:00,mfh,24.69
2023-06-25T01:33:00,mfh,25.13
2023-06-25T01:34:00,mfh,25.26
2023-06-25T01:35:00,mfh,25.20
2023-06-25T01:36:00,mfh,25.28
2023-06-25T01:37:00,mfh,25.36
2023-06-25T01:38:00,mfh,25.99
2023-06-25T01:39:00,mfh,24.95
2023-06-25T01:40:00,mfh,24.91
2023-06-25T01:41:00,mfh,41.41
2023-06-25T01:42:00,mfh,44.13
2023-06-25T01:43:00,mfh,53.06
2023-06-25T01:44:00,mfh,53.34
2023-06-25T01:45:00,mfh,52.83
2023-06-25T01:46:00,mfh,52.52
2023-06-25T01:47:00,mfh,52.75
2023-06-25T01:48:00,mfh,50.85
2023-06-25T01:49:00,mfh,50.79
2023-06-25T01:50:00,mfh,50.73
2023-06-25T01:51:00,mfh,45.78
2023-06-25T01:52:00,mfh,45.62
2023-06-25T01:53:00,mfh,45.47
2023-06-25T01:54:00,mfh,45.40
2023-06-25T01:55:00,mfh,45.37
2023-06-25T01:56:00,mfh,39.16
2023-06-25T01:57:00,mfh,25.25
2023-06-25T01:58:00,mfh,24.84
2023-06-25T01:59:00,mfh,24.96
2023-06-25T02:00:00,mfh,25.58
2023-06-25T02:01:00,mfh,25.64
2023-06-25T02:02:00,mfh,25.66
2023-06-25T02:03:00,mfh,25.80
2023-06-25T02:04:00,mfh,27.10
2023-06-25T02:05:00,mfh,26.59
2023-06-25T02:06:00,mfh,26.68
2023-06-25T02:07:00,mfh,27.03
2023-06-25T02:08:00,mfh,26.58
2023-06-25T02:09:00,mfh,25.47
2023-06-25T02:10:00,mfh,25.50
2023-06-25T02:11:00,mfh,25.59
2023-06-25T02:12:00,mfh,25.57
2023-06-25T02:13:00,mfh,25.64
2023-06-25T02:14:00,mfh,24.94
2023-06-25T02:15:00,mfh,24.92
2023-06-25T02:16:00,mfh,24.79
2023-06-25T02:17:00,mfh,24.83
2023-06-25T02:18:00,mfh,25.54
2023-06-25T02:19:00,mfh,25.50
2023-06-25T02:20:00,mfh,25.62
2023-06-25T02:21:00,mfh,25.67
2023-06-25T02:22:00,mfh,25.71
2023-06-25T02:23:00,mfh,25.01
2023-06-25T02:24:00,mfh,25.30
2023-06-25T02:25:00,mfh,25.16
2023-06-25T02:26:00,mfh,25.77
2023-06-25T02:27:00,mfh,25.61
2023-06-25T02:28:00,mfh,26.15
2023-06-25T02:29:00,mfh,25.80
2023-06-25T02:30:00,mfh,25.86
2023-06-25T02:31:00,mfh,25.83
2023-06-25T02:32:00,mfh,25.21
2023-06-25T02:33:00,mfh,25.13
2023-06-25T02:34:00,mfh,25.19
2023-06-25T02:35:00,mfh,25.18
2023-06-25T02:36:00,mfh,25.79
2023-06-25T02:37:00,mfh,25.90
2023-06-25T02:38:00,mfh,25.94
2023-06-25T02:39:00,mfh,25.79
2023-06-25T02:40:00,mfh,25.89
2023-06-25T02:41:00,mfh,25.18
2023-06-25T02:42:00,mfh,25.20
2023-06-25T02:43:00,mfh,25.05
2023-06-25T02:44:00,mfh,25.55
2023-06-25T02:45:00,mfh,25.55
2023-06-25T02:46:00,mfh,25.71
2023-06-25T02:47:00,mfh,25.66
2023-06-25T02:48:00,mfh,25.78
2023-06-25T02:49:00,mfh,25.79
2023-06-25T02:50:00,mfh,25.11
2023-06-25T02:51:00,mfh,24.99
2023-06-25T02:52:00,mfh,24.92
2023-06-25T02:53:00,mfh,25.56
2023-06-25T02:54:00,mfh,25.57
2023-06-25T02:55:00,mfh,25.67
2023-06-25T02:56:00,mfh,25.69
2023-06-25T02:57:00,mfh,25.69
2023-06-25T02:58:00,mfh,25.09
2023-06-25T02:59:00,mfh,25.17
2023-06-25T03:00:00,mfh,25.21
2023-06-25T03:01:00,mfh,25.21
2023-06-25T03:02:00,mfh,25.84
2023-06-25T03:03:00,mfh,25.70
2023-06-25T03:04:00,mfh,25.65
2023-06-25T03:05:00,mfh,25.67
2023-06-25T03:06:00,mfh,25.68
2023-06-25T03:07:00,mfh,25.56
2023-06-25T03:08:00,mfh,24.86
2023-06-25T03:09:00,mfh,24.86
2023-06-25T03:10:00,mfh,24.95
2023-06-25T03:11:00,mfh,25.55
2023-06-25T03:12:00,mfh,26.19
2023-06-25T03:13:00,mfh,25.65
2023-06-25T03:14:00,mfh,25.72
2023-06-25T03:15:00,mfh,25.83
2023-06-25T03:16:00,mfh,25.15
2023-06-25T03:17:00,mfh,25.96
2023-06-25T03:18:00,mfh,25.53
2023-06-25T03:19:00,mfh,25.85
2023-06-25T03:20:00,mfh,25.79
2023-06-25T03:21:00,mfh,26.09
2023-06-25T03:22:00,mfh,25.75
2023-06-25T03:23:00,mfh,25.76
2023-06-25T03:24:00,mfh,34.51
2023-06-25T03:25:00,mfh,33.96
2023-06-25T03:26:00,mfh,33.95
2023-06-25T03:27:00,mfh,34.38
2023-06-25T03:28:00,mfh,33.93
2023-06-25T03:29:00,mfh,35.12
2023-06-25T03:30:00,mfh,34.92
2023-06-25T03:31:00,mfh,34.39
2023-06-25T03:32:00,mfh,34.28
2023-06-25T03:33:00,mfh,34.34
2023-06-25T03:34:00,mfh,33.71
2023-06-25T03:35:00,mfh,33.52
2023-06-25T03:36:00,mfh,33.51
2023-06-25T03:37:00,mfh,33.53
2023-06-25T03:38:00,mfh,34.12
2023-06-25T03:39:00,mfh,35.03
2023-06-25T03:40:00,mfh,34.33
2023-06-25T03:41:00,mfh,34.31
2023-06-25T03:42:00,mfh,34.15
2023-06-25T03:43:00,mfh,33.45
2023-06-25T03:44:00,mfh,33.44
2023-06-25T03:45:00,mfh,33.43
2023-06-25T03:46:00,mfh,33.46
2023-06-25T03:47:00,mfh,34.21
2023-06-25T03:48:00,mfh,34.15
2023-06-25T03:49:00,mfh,34.33
2023-06-25T03:50:00,mfh,34.34
2023-06-25T03:51:00,mfh,34.60
2023-06-25T03:52:00,mfh,33.88
2023-06-25T03:53:00,mfh,33.83
2023-06-25T03:54:00,mfh,33.49
2023-06-25T03:55:00,mfh,34.10
2023-06-25T03:56:00,mfh,34.10
2023-06-25T03:57:00,mfh,34.12
2023-06-25T03:58:00,mfh,34.18
2023-06-25T03:59:00,mfh,34.67
2023-06-25T04:00:00,mfh,33.71
2023-06-25T04:01:00,mfh,34.08
2023-06-25T04:02:00,mfh,34.07
2023-06-25T04:03:00,mfh,34.05
2023-06-25T04:04:00,mfh,34.08
2023-06-25T04:05:00,mfh,34.71
2023-06-25T04:06:00,mfh,35.32
2023-06-25T04:07:00,mfh,34.84
2023-06-25T04:08:00,mfh,34.95
2023-06-25T04:09:00,mfh,34.93
2023-06-25T04:10:00,mfh,33.93
2023-06-25T04:11:00,mfh,33.84
2023-06-25T04:12:00,mfh,33.84
2023-06-25T04:13:00,mfh,34.38
2023-06-25T04:14:00,mfh,34.41
2023-06-25T04:15:00,mfh,34.32
2023-06-25T04:16:00,mfh,34.36
2023-06-25T04:17:00,mfh,34.95
2023-06-25T04:18:00,mfh,33.77
2023-06-25T04:19:00,mfh,33.84
2023-06-25T04:20:00,mfh,33.83
2023-06-25T04:21:00,mfh,33.76
2023-06-25T04:22:00,mfh,34.39
2023-06-25T04:23:00,mfh,34.38
2023-06-25T04:24:00,mfh,34.47
2023-06-25T04:25:00,mfh,34.92
2023-06-25T04:26:00,mfh,34.54
2023-06-25T04:27:00,mfh,33.76
2023-06-25T04:28:00,mfh,33.76
2023-06-25T04:29:00,mfh,34.00
2023-06-25T04:30:00,mfh,34.93
2023-06-25T04:31:00,mfh,34.52
2023-06-25T04:32:00,mfh,34.40
2023-06-25T04:33:00,mfh,34.44
2023-06-25T04:34:00,mfh,34.41
2023-06-25T04:35:00,mfh,34.43
2023-06-25T04:36:00,mfh,33.80
2023-06-25T04:37:00,mfh,33.80
2023-06-25T04:38:00,mfh,33.92
2023-06-25T04:39:00,mfh,34.40
2023-06-25T04:40:00,mfh,34.23
2023-06-25T04:41:00,mfh,34.15
2023-06-25T04:42:00,mfh,34.24
2023-06-25T04:43:00,mfh,34.24
2023-06-25T04:44:00,mfh,34.24
2023-06-25T04:45:00,mfh,33.64
2023-06-25T04:46:00,mfh,33.69
2023-06-25T04:47:00,mfh,33.61
2023-06-25T04:48:00,mfh,33.19
2023-06-25T04:49:00,mfh,33.90
2023-06-25T04:50:00,mfh,34.53
2023-06-25T04:51:00,mfh,34.48
2023-06-25T04:52:00,mfh,34.64
2023-06-25T04:53:00,mfh,34.66
2023-06-25T04:54:00,mfh,33.92
2023-06-25T04:55:00,mfh,33.90
2023-06-25T04:56:00,mfh,33.95
2023-06-25T04:57:00,mfh,34.68
2023-06-25T04:58:00,mfh,35.16
2023-06-25T04:59:00,mfh,34.76
2023-06-25T05:00:00,mfh,34.73
2023-06-25T05:01:00,mfh,54.11
2023-06-25T05:02:00,mfh,54.47
2023-06-25T05:03:00,mfh,53.41
2023-06-25T05:04:00,mfh,53.31
2023-06-25T05:05:00,mfh,53.33
2023-06-25T05:06:00,mfh,53.25
2023-06-25T05:07:00,mfh,53.99
2023-06-25T05:08:00,mfh,53.71
2023-06-25T05:09:00,mfh,53.83
2023-06-25T05:10:00,mfh,54.01
2023-06-25T05:11:00,mfh,53.77
2023-06-25T05:12:00,mfh,52.88
2023-06-25T05:13:00,mfh,53.08
2023-06-25T05:14:00,mfh,53.44
2023-06-25T05:15:00,mfh,53.44
2023-06-25T05:16:00,mfh,54.34
2023-06-25T05:17:00,mfh,55.67
2023-06-25T05:18:00,mfh,55.58
2023-06-25T05:19:00,mfh,55.77
2023-06-25T05:20:00,mfh,54.87
2023-06-25T05:21:00,mfh,54.74
2023-06-25T05:22:00,mfh,53.12
2023-06-25T05:23:00,mfh,53.28
2023-06-25T05:24:00,mfh,53.72
2023-06-25T05:25:00,mfh,53.88
2023-06-25T05:26:00,mfh,53.86
2023-06-25T05:27:00,mfh,53.90
2023-06-25T05:28:00,mfh,54.49
2023-06-25T05:29:00,mfh,53.47
2023-06-25T05:30:00,mfh,53.47
2023-06-25T05:31:00,mfh,53.80
2023-06-25T05:32:00,mfh,53.49
2023-06-25T05:33:00,mfh,54.29
2023-06-25T05:34:00,mfh,54.25
2023-06-25T05:35:00,mfh,53.99
2023-06-25T05:36:00,mfh,53.51
2023-06-25T05:37:00,mfh,53.78
2023-06-25T05:38:00,mfh,53.59
2023-06-25T05:39:00,mfh,53.15
2023-06-25T05:40:00,mfh,53.11
2023-06-25T05:41:00,mfh,44.61
2023-06-25T05:42:00,mfh,45.30
2023-06-25T05:43:00,mfh,45.02
2023-06-25T05:44:00,mfh,44.75
2023-06-25T05:45:00,mfh,44.66
2023-06-25T05:46:00,mfh,45.02
2023-06-25T05:47:00,mfh,44.19
2023-06-25T05:48:00,mfh,44.30
2023-06-25T05:49:00,mfh,44.24
2023-06-25T05:50:00,mfh,44.68
2023-06-25T05:51:00,mfh,44.71
2023-06-25T05:52:00,mfh,45.63
2023-06-25T05:53:00,mfh,45.40
2023-06-25T05:54:00,mfh,45.59
2023-06-25T05:55:00,mfh,45.31
2023-06-25T05:56:00,mfh,44.72
2023-06-25T05:57:00,mfh,44.77
2023-06-25T05:58:00,mfh,43.85
2023-06-25T05:59:00,mfh,44.52
2023-06-25T06:00:00,mfh,44.56
2023-06-25T06:01:00,mfh,44.56
2023-06-25T06:02:00,mfh,44.66
2023-06-25T06:03:00,mfh,44.50
2023-06-25T06:04:00,mfh,43.92
2023-06-25T06:05:00,mfh,44.04
2023-06-25T06:06:00,mfh,43.94
2023-06-25T06:07:00,mfh,43.97
2023-06-25T06:08:00,mfh,44.58
2023-06-25T06:09:00,mfh,44.83
2023-06-25T06:10:00,mfh,44.78
2023-06-25T06:11:00,mfh,44.54
2023-06-25T06:12:00,mfh,43.76
2023-06-25T06:13:00,mfh,43.86
2023-06-25T06:14:00,mfh,43.66
2023-06-25T06:15:00,mfh,43.86
2023-06-25T06:16:00,mfh,44.41
2023-06-25T06:17:00,mfh,44.54
2023-06-25T06:18:00,mfh,44.47
2023-06-25T06:19:00,mfh,44.52
2023-06-25T06:20:00,mfh,44.52
2023-06-25T06:21:00,mfh,44.72
2023-06-25T06:22:00,mfh,43.91
2023-06-25T06:23:00,mfh,43.77
2023-06-25T06:24:00,mfh,43.80
2023-06-25T06:25:00,mfh,44.48
2023-06-25T06:26:00,mfh,44.51
2023-06-25T06:27:00,mfh,44.47
2023-06-25T06:28:00,mfh,44.43
2023-06-25T06:29:00,mfh,44.52
2023-06-25T06:30:00,mfh,43.95
2023-06-25T06:31:00,mfh,43.99
2023-06-25T06:32:00,mfh,43.92
2023-06-25T06:33:00,mfh,44.03
2023-06-25T06:34:00,mfh,44.67
2023-06-25T06:35:00,mfh,44.58
2023-06-25T06:36:00,mfh,44.59
2023-06-25T06:37:00,mfh,44.53
2023-06-25T06:38:00,mfh,44.72
2023-06-25T06:39:00,mfh,44.30
2023-06-25T06:40:00,mfh,44.33
2023-06-25T06:41:00,mfh,44.31
2023-06-25T06:42:00,mfh,44.84
2023-06-25T06:43:00,mfh,45.03
2023-06-25T06:44:00,mfh,44.92
2023-06-25T06:45:00,mfh,44.81
2023-06-25T06:46:00,mfh,44.94
2023-06-25T06:47:00,mfh,44.09
2023-06-25T06:48:00,mfh,43.69
2023-06-25T06:49:00,mfh,43.68
2023-06-25T06:50:00,mfh,45.27
2023-06-25T06:51:00,mfh,44.55
2023-06-25T06:52:00,mfh,45.24
2023-06-25T06:53:00,mfh,44.39
2023-06-25T06:54:00,mfh,44.46
2023-06-25T06:55:00,mfh,44.45
2023-06-25T06:56:00,mfh,43.99
2023-06-25T06:57:00,mfh,43.73
2023-06-25T06:58:00,mfh,44.22
2023-06-25T06:59:00,mfh,43.64
2023-06-25T07:00:00,mfh,44.41
2023-06-25T07:01:00,mfh,44.83
2023-06-25T07:02:00,mfh,44.56
2023-06-25T07:03:00,mfh,44.35
2023-06-25T07:04:00,mfh,44.37
2023-06-25T07:05:00,mfh,43.78
2023-06-25T07:06:00,mfh,43.94
2023-06-25T07:07:00,mfh,44.27
2023-06-25T07:08:00,mfh,44.32
2023-06-25T07:09:00,mfh,44.33
2023-06-25T07:10:00,mfh,44.50
2023-06-25T07:11:00,mfh,44.59
2023-06-25T07:12:00,mfh,44.50
2023-06-25T07:13:00,mfh,43.74
2023-06-25T07:14:00,mfh,43.77
2023-06-25T07:15:00,mfh,43.85
2023-06-25T07:16:00,mfh,43.87
2023-06-25T07:17:00,mfh,44.72
2023-06-25T07:18:00,mfh,44.14
2023-06-25T07:19:00,mfh,44.24
2023-06-25T07:20:00,mfh,44.47
2023-06-25T07:21:00,mfh,43.95
2023-06-25T07:22:00,mfh,44.15
2023-06-25T07:23:00,mfh,43.54
2023-06-25T07:24:00,mfh,43.60
2023-06-25T07:25:00,mfh,43.38
2023-06-25T07:26:00,mfh,44.09
2023-06-25T07:27:00,mfh,44.00
2023-06-25T07:28:00,mfh,44.14
2023-06-25T07:29:00,mfh,44.04
2023-06-25T07:30:00,mfh,44.13
2023-06-25T07:31:00,mfh,43.59
2023-06-25T07:32:00,mfh,43.68
2023-06-25T07:33:00,mfh,43.68
2023-06-25T07:34:00,mfh,44.32
2023-06-25T07:35:00,mfh,44.39
2023-06-25T07:36:00,mfh,44.19
2023-06-25T07:37:00,mfh,44.16
2023-06-25T07:38:00,mfh,44.23
2023-06-25T07:39:00,mfh,43.50
2023-06-25T07:40:00,mfh,43.64
2023-06-25T07:41:00,mfh,43.51
2023-06-25T07:42:00,mfh,43.50
2023-06-25T07:43:00,mfh,44.13
2023-06-25T07:44:00,mfh,44.76
2023-06-25T07:45:00,mfh,44.18
2023-06-25T07:46:00,mfh,44.03
2023-06-25T07:47:00,mfh,44.27
2023-06-25T07:48:00,mfh,43.55
2023-06-25T07:49:00,mfh,43.59
2023-06-25T07:50:00,mfh,44.31
2023-06-25T07:51:00,mfh,43.62
2023-06-25T07:52:00,mfh,44.69
2023-06-25T07:53:00,mfh,44.31
2023-06-25T07:54:00,mfh,44.33
2023-06-25T07:55:00,mfh,44.25
2023-06-25T07:56:00,mfh,44.26
2023-06-25T07:57:00,mfh,43.63
2023-06-25T07:58:00,mfh,43.62
2023-06-25T07:59:00,mfh,43.64
2023-06-25T08:00:00,mfh,43.70
2023-06-25T08:01:00,mfh,44.20
2023-06-25T08:02:00,mfh,44.25
2023-06-25T08:03:00,mfh,44.26
2023-06-25T08:04:00,mfh,44.33
2023-06-25T08:05:00,mfh,43.53
2023-06-25T08:06:00,mfh,43.96
2023-06-25T08:07:00,mfh,43.94
2023-06-25T08:08:00,mfh,43.80
2023-06-25T08:09:00,mfh,44.59
2023-06-25T08:10:00,mfh,44.55
2023-06-25T08:11:00,mfh,44.46
2023-06-25T08:12:00,mfh,44.32
2023-06-25T08:13:00,mfh,44.26
2023-06-25T08:14:00,mfh,43.72
2023-06-25T08:15:00,mfh,43.62
2023-06-25T08:16:00,mfh,43.61
2023-06-25T08:17:00,mfh,43.80
2023-06-25T08:18:00,mfh,44.15
2023-06-25T08:19:00,mfh,44.26
2023-06-25T08:20:00,mfh,44.39
2023-06-25T08:21:00,mfh,44.48
2023-06-25T08:22:00,mfh,44.54
2023-06-25T08:23:00,mfh,44.04
2023-06-25T08:24:00,mfh,43.73
2023-06-25T08:25:00,mfh,43.54
2023-06-25T08:26:00,mfh,43.92
2023-06-25T08:27:00,mfh,44.16
2023-06-25T08:28:00,mfh,44.15
2023-06-25T08:29:00,mfh,44.20
2023-06-25T08:30:00,mfh,44.33
2023-06-25T08:31:00,mfh,48.95
2023-06-25T08:32:00,mfh,47.34
2023-06-25T08:33:00,mfh,47.52
2023-06-25T08:34:00,mfh,47.48
2023-06-25T08:35:00,mfh,48.60
2023-06-25T08:36:00,mfh,47.93
2023-06-25T08:37:00,mfh,48.05
2023-06-25T08:38:00,mfh,48.08
2023-06-25T08:39:00,mfh,48.74
2023-06-25T08:40:00,mfh,47.95
2023-06-25T08:41:00,mfh,47.94
2023-06-25T08:42:00,mfh,48.11
2023-06-25T08:43:00,mfh,47.48
2023-06-25T08:44:00,mfh,48.88
2023-06-25T08:45:00,mfh,49.17
2023-06-25T08:46:00,mfh,49.25
2023-06-25T08:47:00,mfh,49.99
2023-06-25T08:48:00,mfh,50.02
2023-06-25T08:49:00,mfh,48.13
2023-06-25T08:50:00,mfh,48.13
2023-06-25T08:51:00,mfh,48.89
2023-06-25T08:52:00,mfh,48.15
2023-06-25T08:53:00,mfh,48.01
2023-06-25T08:54:00,mfh,47.50
2023-06-25T08:55:00,mfh,47.62
2023-06-25T08:56:00,mfh,47.43
2023-06-25T08:57:00,mfh,48.58
2023-06-25T08:58:00,mfh,48.16
2023-06-25T08:59:00,mfh,48.01
2023-06-25T09:00:00,mfh,48.08
2023-06-25T09:01:00,mfh,48.15
2023-06-25T09:02:00,mfh,48.12
2023-06-25T09:03:00,mfh,48.07
2023-06-25T09:04:00,mfh,48.26
2023-06-25T09:05:00,mfh,47.46
2023-06-25T09:06:00,mfh,47.85
2023-06-25T09:07:00,mfh,47.53
2023-06-25T09:08:00,mfh,48.44
2023-06-25T09:09:00,mfh,57.39
2023-06-25T09:10:00,mfh,57.93
2023-06-25T09:11:00,mfh,57.60
2023-06-25T09:12:00,mfh,57.74
2023-06-25T09:13:00,mfh,57.82
2023-06-25T09:14:00,mfh,57.71
2023-06-25T09:15:00,mfh,56.89
2023-06-25T09:16:00,mfh,56.89
2023-06-25T09:17:00,mfh,56.77
2023-06-25T09:18:00,mfh,57.26
2023-06-25T09:19:00,mfh,57.26
2023-06-25T09:20:00,mfh,57.22
2023-06-25T09:21:00,mfh,57.11
2023-06-25T09:22:00,mfh,57.36
2023-06-25T09:23:00,mfh,57.32
2023-06-25T09:24:00,mfh,57.48
2023-06-25T09:25:00,mfh,57.09
2023-06-25T09:26:00,mfh,56.19
2023-06-25T09:27:00,mfh,56.65
2023-06-25T09:28:00,mfh,56.63
2023-06-25T09:29:00,mfh,57.29
2023-06-25T09:30:00,mfh,57.26
2023-06-25T09:31:00,mfh,57.53
2023-06-25T09:32:00,mfh,57.32
2023-06-25T09:33:00,mfh,57.26
2023-06-25T09:34:00,mfh,57.50
2023-06-25T09:35:00,mfh,57.64
2023-06-25T09:36:00,mfh,57.46
2023-06-25T09:37:00,mfh,56.58
2023-06-25T09:38:00,mfh,56.71
2023-06-25T09:39:00,mfh,56.75
2023-06-25T09:40:00,mfh,56.93
2023-06-25T09:41:00,mfh,57.03
2023-06-25T09:42:00,mfh,57.11
2023-06-25T09:43:00,mfh,57.10
2023-06-25T09:44:00,mfh,56.92
2023-06-25T09:45:00,mfh,56.89
2023-06-25T09:46:00,mfh,57.16
2023-06-25T09:47:00,mfh,57.16
2023-06-25T09:48:00,mfh,56.53
2023-06-25T09:49:00,mfh,56.56
2023-06-25T09:50:00,mfh,56.50
2023-06-25T09:51:00,mfh,57.15
2023-06-25T09:52:00,mfh,57.21
2023-06-25T09:53:00,mfh,57.15
2023-06-25T09:54:00,mfh,57.15
2023-06-25T09:55:00,mfh,57.11
2023-06-25T09:56:00,mfh,57.30
2023-06-25T09:57:00,mfh,57.33
2023-06-25T09:58:00,mfh,56.77
2023-06-25T09:59:00,mfh,56.86
2023-06-25T10:00:00,mfh,56.69
2023-06-25T10:01:00,mfh,57.54
2023-06-25T10:02:00,mfh,57.27
2023-06-25T10:03:00,mfh,57.47
2023-06-25T10:04:00,mfh,57.41
2023-06-25T10:05:00,mfh,57.42
2023-06-25T10:06:00,mfh,57.54
2023-06-25T10:07:00,mfh,57.59
2023-06-25T10:08:00,mfh,57.64
2023-06-25T10:09:00,mfh,57.76
2023-06-25T10:10:00,mfh,57.26
2023-06-25T10:11:00,mfh,57.19
2023-06-25T10:12:00,mfh,57.84
2023-06-25T10:13:00,mfh,58.35
2023-06-25T10:14:00,mfh,58.09
2023-06-25T10:15:00,mfh,57.87
2023-06-25T10:16:00,mfh,57.94
2023-06-25T10:17:00,mfh,58.06
2023-06-25T10:18:00,mfh,58.04
2023-06-25T10:19:00,mfh,58.33
2023-06-25T10:20:00,mfh,57.61
2023-06-25T10:21:00,mfh,57.76
2023-06-25T10:22:00,mfh,57.69
2023-06-25T10:23:00,mfh,59.07
2023-06-25T10:24:00,mfh,58.80
2023-06-25T10:25:00,mfh,58.07
2023-06-25T10:26:00,mfh,58.34
2023-06-25T10:27:00,mfh,58.04
2023-06-25T10:28:00,mfh,58.09
2023-06-25T10:29:00,mfh,57.98
2023-06-25T10:30:00,mfh,58.26
2023-06-25T10:31:00,mfh,58.58
2023-06-25T10:32:00,mfh,57.78
2023-06-25T10:33:00,mfh,57.77
2023-06-25T10:34:00,mfh,57.77
2023-06-25T10:35:00,mfh,58.40
2023-06-25T10:36:00,mfh,58.22
2023-06-25T10:37:00,mfh,58.34
2023-06-25T10:38:00,mfh,58.22
2023-06-25T10:39:00,mfh,58.24
2023-06-25T10:40:00,mfh,58.11
2023-06-25T10:41:00,mfh,58.79
2023-06-25T10:42:00,mfh,57.12
2023-06-25T10:43:00,mfh,57.18
2023-06-25T10:44:00,mfh,57.28
2023-06-25T10:45:00,mfh,57.65
2023-06-25T10:46:00,mfh,57.69
2023-06-25T10:47:00,mfh,57.75
2023-06-25T10:48:00,mfh,57.79
2023-06-25T10:49:00,mfh,58.76
2023-06-25T10:50:00,mfh,57.65
2023-06-25T10:51:00,mfh,57.86
2023-06-25T10:52:00,mfh,57.80
2023-06-25T10:53:00,mfh,57.13
2023-06-25T10:54:00,mfh,56.96
2023-06-25T10:55:00,mfh,57.08
2023-06-25T10:56:00,mfh,57.84
2023-06-25T10:57:00,mfh,57.81
2023-06-25T10:58:00,mfh,59.09
2023-06-25T10:59:00,mfh,59.27
2023-06-25T11:00:00,mfh,59.59
2023-06-25T11:01:00,mfh,59.97
2023-06-25T11:02:00,mfh,59.40
2023-06-25T11:03:00,mfh,59.36
2023-06-25T11:04:00,mfh,58.45
2023-06-25T11:05:00,mfh,57.91
2023-06-25T11:06:00,mfh,58.15
2023-06-25T11:07:00,mfh,58.98
2023-06-25T11:08:00,mfh,58.74
2023-06-25T11:09:00,mfh,58.67
2023-06-25T11:10:00,mfh,58.63
2023-06-25T11:11:00,mfh,58.50
2023-06-25T11:12:00,mfh,58.84
2023-06-25T11:13:00,mfh,58.76
2023-06-25T11:14:00,mfh,58.51
2023-06-25T11:15:00,mfh,57.89
2023-06-25T11:16:00,mfh,57.80
2023-06-25T11:17:00,mfh,58.52
2023-06-25T11:18:00,mfh,58.72
2023-06-25T11:19:00,mfh,58.71
2023-06-25T11:20:00,mfh,58.72
2023-06-25T11:21:00,mfh,59.16
2023-06-25T11:22:00,mfh,59.17
2023-06-25T11:23:00,mfh,59.18
2023-06-25T11:24:00,mfh,59.23
2023-06-25T11:25:00,mfh,59.14
2023-06-25T11:26:00,mfh,75.93
2023-06-25T11:27:00,mfh,77.62
2023-06-25T11:28:00,mfh,77.76
2023-06-25T11:29:00,mfh,77.82
2023-06-25T11:30:00,mfh,77.47
2023-06-25T11:31:00,mfh,77.09
2023-06-25T11:32:00,mfh,76.91
2023-06-25T11:33:00,mfh,76.73
2023-06-25T11:34:00,mfh,76.71
2023-06-25T11:35:00,mfh,76.81
2023-06-25T11:36:00,mfh,71.31
2023-06-25T11:37:00,mfh,70.95
2023-06-25T11:38:00,mfh,70.60
2023-06-25T11:39:00,mfh,71.99
2023-06-25T11:40:00,mfh,65.78
2023-06-25T11:41:00,mfh,66.00
2023-06-25T11:42:00,mfh,65.57
2023-06-25T11:43:00,mfh,59.19
2023-06-25T11:44:00,mfh,59.14
2023-06-25T11:45:00,mfh,59.18
2023-06-25T11:46:00,mfh,59.60
2023-06-25T11:47:00,mfh,58.48
2023-06-25T11:48:00,mfh,59.02
2023-06-25T11:49:00,mfh,59.02
2023-06-25T11:50:00,mfh,59.91
2023-06-25T11:51:00,mfh,59.51
2023-06-25T11:52:00,mfh,59.40
2023-06-25T11:53:00,mfh,59.28
2023-06-25T11:54:00,mfh,58.64
2023-06-25T11:55:00,mfh,58.90
2023-06-25T11:56:00,mfh,58.74
2023-06-25T11:57:00,mfh,58.52
2023-06-25T11:58:00,mfh,58.92
2023-06-25T11:59:00,mfh,58.68
2023-06-25T12:00:00,mfh,58.75
2023-06-25T12:01:00,mfh,59.35
2023-06-25T12:02:00,mfh,59.61
2023-06-25T12:03:00,mfh,59.25
2023-06-25T12:04:00,mfh,58.92
2023-06-25T12:05:00,mfh,58.96
2023-06-25T12:06:00,mfh,59.12
2023-06-25T12:07:00,mfh,59.01
2023-06-25T12:08:00,mfh,59.09
2023-06-25T12:09:00,mfh,58.45
2023-06-25T12:10:00,mfh,58.19
2023-06-25T12:11:00,mfh,58.43
2023-06-25T12:12:00,mfh,59.06
2023-06-25T12:13:00,mfh,59.12
2023-06-25T12:14:00,mfh,59.58
2023-06-25T12:15:00,mfh,59.05
2023-06-25T12:16:00,mfh,59.28
2023-06-25T12:17:00,mfh,59.82
2023-06-25T12:18:00,mfh,60.46
2023-06-25T12:19:00,mfh,59.46
2023-06-25T12:20:00,mfh,58.97
2023-06-25T12:21:00,mfh,58.68
2023-06-25T12:22:00,mfh,58.81
2023-06-25T12:23:00,mfh,59.96
2023-06-25T12:24:00,mfh,59.51
2023-06-25T12:25:00,mfh,60.51
2023-06-25T12:26:00,mfh,59.77
2023-06-25T12:27:00,mfh,59.59
2023-06-25T12:28:00,mfh,59.75
2023-06-25T12:29:00,mfh,59.75
2023-06-25T12:30:00,mfh,59.94
2023-06-25T12:31:00,mfh,59.26
2023-06-25T12:32:00,mfh,59.78
2023-06-25T12:33:00,mfh,59.23
2023-06-25T12:34:00,mfh,59.78
2023-06-25T12:35:00,mfh,59.71
2023-06-25T12:36:00,mfh,60.07
2023-06-25T12:37:00,mfh,61.41
2023-06-25T12:38:00,mfh,61.53
2023-06-25T12:39:00,mfh,61.44
2023-06-25T12:40:00,mfh,61.93
2023-06-25T12:41:00,mfh,61.31
2023-06-25T12:42:00,mfh,59.54
2023-06-25T12:43:00,mfh,59.67
2023-06-25T12:44:00,mfh,60.04
2023-06-25T12:45:00,mfh,60.30
2023-06-25T12:46:00,mfh,59.84
2023-06-25T12:47:00,mfh,60.00
2023-06-25T12:48:00,mfh,59.64
2023-06-25T12:49:00,mfh,59.56
2023-06-25T12:50:00,mfh,59.78
2023-06-25T12:51:00,mfh,59.80
2023-06-25T12:52:00,mfh,59.91
2023-06-25T12:53:00,mfh,59.53
2023-06-25T12:54:00,mfh,59.55
2023-06-25T12:55:00,mfh,59.25
2023-06-25T12:56:00,mfh,60.27
2023-06-25T12:57:00,mfh,60.81
2023-06-25T12:58:00,mfh,59.90
2023-06-25T12:59:00,mfh,60.44
2023-06-25T13:00:00,mfh,60.40
2023-06-25T13:01:00,mfh,60.64
2023-06-25T13:02:00,mfh,60.22
2023-06-25T13:03:00,mfh,59.15
2023-06-25T13:04:00,mfh,59.27
2023-06-25T13:05:00,mfh,59.64
2023-06-25T13:06:00,mfh,59.80
2023-06-25T13:07:00,mfh,59.67
2023-06-25T13:08:00,mfh,59.86
2023-06-25T13:09:00,mfh,59.59
2023-06-25T13:10:00,mfh,60.52
2023-06-25T13:11:00,mfh,60.44
2023-06-25T13:12:00,mfh,60.40
2023-06-25T13:13:00,mfh,60.48
2023-06-25T13:14:00,mfh,60.57
2023-06-25T13:15:00,mfh,60.78
2023-06-25T13:16:00,mfh,60.23
2023-06-25T13:17:00,mfh,59.79
2023-06-25T13:18:00,mfh,60.32